Regional Weather Roundup
Issued by NWS

Home | Current Version | Previous Version | Text Only | Print | Product List | Glossary Off
Versions: 1 2 3 4 5 6 7 8 9 10 11 12 13 14 15 16 17 18 19 20 21 22 23 24 25 26 27 28 29 30 31 32 33 34 35 36 37 38 39 40 41 42 43 44 45 46 47 48 49 50

801
ASUS44 KLIX 170811
RWRLA
LOUISIANA WEATHER ROUNDUP
NATIONAL WEATHER SERVICE NEW ORLEANS LA
300 AM CDT FRI APR 17 2015

NOTE: "FAIR" INDICATES FEW OR NO CLOUDS BELOW 12,000 FEET WITH NO
      SIGNIFICANT WEATHER AND/OR OBSTRUCTIONS TO VISIBILITY.
      SKY/WX - SKY CONDITION AND SIGNIFICANT WEATHER.
      TMP - AIR TEMPERATURE.    DP   - DEWPOINT TEMPERATURE.
      RH  - RELATIVE HUMIDITY.  PRES - PRESSURE.
      HX  - HEAT INDEX.         WCI  - WIND CHILL INDEX.

*  THESE STATIONS ARE NOT NWS OR FAA STATIONS AND ARE NOT UNDER
   NWS QUALITY CONTROL.

LAZ040-048-061>063-065-066-069-170900-
SOUTHEAST LOUISIANA

CITY           SKY/WX    TMP DP  RH WIND       PRES   REMARKS
N.O. AUDUBON     N/A     70  68  95 MISG        N/A
N.O. INTL ARPT CLOUDY    69  65  86 E8        29.99F
N.O. LAKEFRONT CLOUDY    71  66  84 SE12      29.99F
SLIDELL        CLOUDY    70  69  97 CALM      30.00F
BATON ROUGE    RAIN      68  66  93 NW6       30.03S FOG
BOOTHVILLE     CLOUDY    68  67  96 VRB7      30.01S
BELLE CHASSE   CLOUDY    68  65  90 SE10      30.00F
BOGALUSA*        N/A     69  66  89 CALM      30.02S
GALLIANO*      RAIN      67  66  96 E3        30.00F
NEW ROADS*     LGT RAIN  66  65  97 NW3       30.05F
GONZALES*      LGT RAIN  68  68 100 NW5       30.03R
HAMMOND*       CLOUDY    68  66  94 CALM      30.03S
HOUMA*         CLOUDY    67  67  97 E7        29.97F
PORT FOURCHON* CLOUDY    70  68  94 NE14      30.03F

$$

LAZ041-044-053-054-170900-
SOUTHWEST LOUISIANA

CITY           SKY/WX    TMP DP  RH WIND       PRES   REMARKS
LAKE CHARLES   LGT RAIN  65  63  93 E8        29.99F
LAFAYETTE      CLOUDY    67  67 100 N6        30.04F
PATTERSON      CLOUDY    68  66  94 N8        30.02S
SALT POINT       N/A     69  67  93 N5        30.01R
NEW IBERIA     CLOUDY    69  66  90 N7        30.05F
CHENAULT AIRPK RAIN      65  64  97 E10       29.98F

$$

LAZ027-028-170900-
CENTRAL LOUISIANA

CITY           SKY/WX    TMP DP  RH WIND       PRES   REMARKS
FORT POLK      NOT AVBL
ALEXANDRIA INT CLOUDY    65  63  93 S9G17     29.94R
ALEXANDRIA     LGT RAIN  65  63  93 SE12      29.93F

$$

LAZ001-002-170900-
NORTHWEST LOUISIANA

CITY           SKY/WX    TMP DP  RH WIND       PRES   REMARKS
SHREVEPORT     CLOUDY    63  61  93 S9        29.95F
BARKSDALE AFB  NOT AVBL
DTN SHREVEPORT CLOUDY    63  60  90 SE7       29.96R

$$

LAZ014-016-170900-
NORTHEAST LOUISIANA

CITY           SKY/WX    TMP DP  RH WIND       PRES   REMARKS
MONROE         CLOUDY    66  64  93 E6        29.99F
TALLULAH       CLOUDY    66  64  93 SW3       30.02S

$$




USA.gov is the U.S. government's official web portal to all federal, state and local government web resources and services.